RH
69 69 69 69 71 74 73 75 81 79 78 76 76 77 79 84 84 68 50 46 63 69 64 31 36 39 41 47 39 33 48 51 41 32 26 18 18 13 14 16 20 19 36 41 60
65 65 68 71 73 74 77 79 83 79 77 76 76 77 82 84 87 69 52 59 73 71 29 25 24 26 48 48 44 42 48 40 29 26 22 18 20 14 16 16 17 50 62 58 59
65 66 68 70 71 74 77 83 83 77 74 74 76 77 82 81 72 35 60 68 75 67 37 33 20 19 43 47 43 41 39 30 24 20 19 19 20 15 14 17 19 34 67 61 61
68 67 66 69 71 72 78 82 78 74 73 72 71 75 80 76 11 23 69 73 69 65 54 39 36 26 28 42 39 45 31 27 24 20 19 18 15 16 16 16 18 32 54 59 60
69 68 67 67 68 72 78 80 80 75 73 71 72 75 83 71 57 30 54 54 58 46 42 40 33 24 29 29 29 35 30 26 24 20 18 17 17 16 15 13 14 20 48 55 55
73 72 69 66 65 69 75 79 80 79 75 71 70 72 93 77 26 21 22 23 47 34 26 27 35 29 28 32 32 29 26 25 23 21 18 17 16 16 14 15 14 24 44 48 52
69 73 72 68 68 71 75 79 79 78 74 70 70 68 77 72 37 28 35 32 25 24 26 21 17 20 26 34 32 30 33 26 24 23 22 18 19 17 13 14 14 14 31 41 48
66 73 78 76 77 79 80 79 78 77 74 70 72 76 84 43 48 43 42 30 25 23 25 24 20 20 24 31 34 37 39 42 28 23 20 20 26 17 15 16 15 15 16 42 47
69 73 78 78 80 80 80 79 78 75 71 72 90 95 85 50 51 38 33 31 26 23 27 19 24 24 26 47 53 48 46 42 33 23 22 20 22 16 14 15 15 14 16 38 46
69 71 75 78 79 80 80 77 72 75 68 64 64 91 67 40 28 18 24 27 32 40 31 29 31 32 48 57 59 53 49 46 40 28 20 24 21 16 15 15 15 16 25 43 48
70 69 72 78 78 79 77 81 59 59 54 62 65 65 54 40 28 24 20 20 38 45 53 42 44 50 34 42 46 44 46 46 38 29 30 33 28 23 19 21 14 17 27 44 47
73 70 70 74 78 78 84 78 57 58 78 50 49 47 41 35 45 34 26 26 45 58 55 61 58 40 31 35 38 41 46 44 36 28 26 29 29 26 23 22 17 18 26 37 60
73 71 72 78 78 80 67 64 48 57 79 58 42 42 41 40 44 31 29 29 45 55 56 64 54 41 38 54 62 46 45 45 43 38 31 30 37 36 27 22 17 20 23 31 56
76 78 79 82 73 80 63 47 50 61 98 58 48 40 34 34 42 28 27 24 39 54 66 71 68 64 71 68 58 75 36 38 46 53 66 47 70 43 34 29 20 20 24 34 52
76 74 80 76 95 90 60 52 49 75 75 28 34 24 29 33 32 30 24 30 62 61 64 63 68 74 76 73 61 66 38 45 56 66 77 51 71 45 34 29 22 20 22 37 51
74 74 78 81 87 81 60 56 80 86 81 37 33 30 40 36 33 27 26 32 44 63 64 58 56 63 65 60 56 44 56 54 59 72 87 50 64 52 38 28 22 20 21 33 53
73 77 80 72 93 74 70 83 95 89 32 33 41 34 40 40 36 31 35 54 60 71 76 62 59 55 60 71 58 62 70 88 91 93 82 40 53 46 33 26 23 20 18 32 52
74 82 81 71 84 83 86 96 89 44 44 30 35 34 42 36 37 38 42 52 52 57 73 81 79 65 63 64 74 78 84 98 90 96 74 43 57 38 26 22 20 19 28 40 54
78 95 94 84 81 88 98 97 67 52 36 50 40 29 37 20 26 43 46 50 49 50 66 76 73 58 57 58 62 90 97 72 98 96 96 72 49 24 21 21 21 22 41 51 55
95 92 76 72 84 92 100 84 64 42 43 46 58 40 44 37 39 39 62 78 68 54 52 68 83 58 64 60 64 79 79 98 99 96 96 64 56 45 47 39 25 25 39 50 51
97 97 72 75 91 99 95 77 54 42 39 53 61 57 42 44 40 43 75 78 63 59 57 74 81 76 77 84 83 93 95 93 86 90 98 98 83 53 62 56 40 32 34 47 50
97 98 79 89 98 97 90 65 55 48 46 47 50 53 47 43 44 41 59 71 63 62 73 86 84 90 77 53 65 78 94 85 93 95 83 92 83 70 73 57 34 31 34 43 46
99 93 77 85 98 96 85 67 58 57 53 51 60 48 43 48 46 47 70 68 62 69 79 77 85 84 74 62 69 73 73 78 92 90 98 98 81 73 64 66 45 44 46 43 46
99 99 96 98 98 94 88 77 74 55 58 49 44 48 51 50 47 48 61 70 65 77 71 74 84 88 90 80 85 100 95 93 95 99 85 87 69 82 74 75 62 48 52 53 52
100 96 84 97 98 88 86 90 85 70 51 50 52 55 55 56 48 50 52 77 70 75 81 86 90 90 80 70 66 64 84 76 91 94 92 64 71 84 91 83 65 51 53 59 64
99 98 89 99 99 98 98 86 91 70 92 74 73 60 68 70 64 71 59 65 71 82 83 86 93 90 88 62 62 78 76 67 67 86 84 74 79 77 88 86 58 52 53 64 71
98 94 99 81 75 88 92 92 97 99 83 64 73 83 79 73 77 71 68 65 69 87 86 95 99 95 94 73 73 92 81 71 64 74 77 91 66 82 90 86 78 55 60 73 75
Wind_Speed
14 15 16 16 16 17 17 17 17 18 19 20 22 23 25 23 26 9 8 11 10 11 5 5 5 5 4 4 4 3 1 4 6 10 12 11 8 10 7 2 4 7 9 8 15
13 14 14 16 15 15 16 18 18 20 19 20 21 22 23 23 16 12 13 12 14 9 5 7 6 6 3 5 4 6 6 9 10 6 13 16 6 12 6 11 5 3 6 12 16
11 13 15 16 17 17 17 17 19 21 21 20 20 21 22 20 6 7 8 14 8 8 3 1 4 5 6 3 7 7 13 8 8 10 13 18 12 19 8 8 9 6 8 14 12
12 14 15 16 18 18 17 17 20 22 22 22 20 20 22 4 5 4 4 2 6 3 3 3 4 4 5 9 8 7 8 8 13 14 15 20 19 18 8 12 9 9 17 13 12
11 15 15 17 18 19 19 19 21 23 22 21 20 18 8 3 13 9 6 4 4 4 5 4 5 5 5 5 5 10 16 15 15 16 20 19 22 22 23 16 10 7 15 15 11
12 14 16 17 19 20 20 21 22 22 22 20 19 14 3 8 6 8 6 8 7 5 5 5 5 5 6 7 9 4 11 16 14 17 18 18 20 9 20 12 9 9 15 18 14
12 14 16 17 20 21 23 23 24 24 23 21 17 7 9 24 6 8 10 4 5 4 4 2 2 1 2 5 4 5 12 16 17 13 11 8 17 20 14 12 10 10 10 12 14
13 16 14 16 19 20 23 25 27 28 25 21 14 5 12 8 7 11 5 8 8 7 5 7 4 4 5 5 6 5 5 9 7 11 12 8 22 16 10 10 13 12 9 10 11
13 14 15 16 18 21 24 28 32 29 21 10 5 5 12 9 5 9 8 5 5 4 3 6 2 5 3 1 4 4 13 12 9 6 8 8 22 10 10 10 14 12 9 12 11
14 15 15 17 20 21 25 31 27 16 5 9 3 5 9 5 2 6 2 7 5 2 3 3 3 1 2 4 12 5 7 7 9 2 7 17 21 18 16 13 17 13 9 11 15
14 14 16 18 20 21 20 8 8 5 3 8 6 8 12 4 3 3 4 7 3 2 3 3 3 8 8 8 6 8 12 14 11 10 6 17 19 18 20 13 18 15 10 13 19
10 12 16 18 21 22 6 5 12 14 16 13 20 24 26 11 11 17 1 3 5 6 3 2 6 10 8 6 8 12 15 17 12 12 13 15 20 18 22 14 18 20 11 15 9
13 12 14 16 22 6 6 4 14 17 6 13 13 10 10 17 14 22 8 6 4 4 5 8 5 5 5 4 10 13 13 7 8 15 21 16 20 9 17 16 9 10 10 12 20
14 13 12 14 6 7 6 17 18 10 5 10 9 9 9 7 7 12 11 6 5 7 5 5 3 0 2 5 9 14 8 8 10 13 9 3 9 12 16 19 14 7 9 11 18
13 14 12 7 4 4 7 15 18 2 5 2 6 8 10 9 4 4 6 4 9 6 6 5 2 2 4 6 9 11 7 8 8 10 5 10 3 12 6 16 17 9 9 13 20
14 14 11 5 2 6 9 14 3 0 11 7 4 8 9 6 2 4 4 6 4 5 3 6 3 6 7 2 7 8 4 12 6 3 9 12 5 12 9 11 14 10 5 14 20
13 13 6 1 5 6 7 6 2 7 8 4 3 9 12 8 8 7 7 7 7 6 4 3 6 4 4 2 4 3 4 4 5 6 10 3 11 16 10 14 14 17 19 16 20
11 9 4 5 4 4 4 2 9 8 9 16 15 12 12 7 6 10 9 5 4 4 4 4 5 4 4 8 4 12 7 4 6 5 7 11 10 11 13 20 16 15 5 15 21
9 2 3 6 6 4 2 5 6 5 5 14 17 2 6 5 1 6 9 6 7 7 7 4 4 1 6 4 8 4 8 2 3 3 3 4 6 9 11 17 13 9 11 15 17
1 2 6 9 6 3 5 9 8 7 11 9 7 12 9 8 7 3 9 2 3 3 4 2 2 2 5 5 6 9 3 4 3 4 4 4 4 4 7 13 15 7 12 16 17
1 3 7 4 5 3 10 9 7 11 13 7 9 11 9 6 7 6 2 1 2 3 7 3 2 2 1 7 9 5 4 5 1 3 2 4 4 10 18 21 10 7 9 14 16
2 3 3 3 4 3 10 7 6 14 14 14 8 13 5 8 5 4 4 1 3 3 5 3 3 5 10 7 10 5 2 6 3 4 4 2 6 15 18 16 18 7 7 4 16
2 4 5 5 4 7 4 10 12 18 17 6 6 6 11 7 4 2 5 5 5 4 4 4 1 4 7 2 7 3 8 9 5 0 6 5 2 9 15 19 20 13 13 10 8
2 3 4 2 3 5 6 11 14 12 16 16 16 15 15 7 3 4 3 4 4 3 6 4 1 4 4 4 2 5 5 5 8 4 7 7 3 5 12 15 18 14 15 19 18
3 5 4 3 4 8 7 6 14 13 13 16 7 15 14 4 5 5 1 3 2 8 3 4 3 2 8 12 14 15 16 14 10 12 8 7 4 4 5 11 10 9 13 20 20
2 2 3 3 7 1 9 9 14 8 4 7 3 6 1 2 2 3 2 1 3 2 3 1 3 2 5 7 7 14 17 18 17 20 14 20 7 3 5 1 9 4 12 20 17
2 3 2 4 5 6 3 10 6 6 9 12 5 6 3 1 2 4 4 4 2 7 7 4 1 1 5 7 12 12 10 15 13 15 18 18 12 2 9 8 10 9 13 18 16
Wind_Direction
352 350 342 339 335 331 328 329 324 324 325 326 328 329 325 324 319 294 241 227 194 214 189 249 188 194 131 216 203 122 165 202 222 247 261 287 316 312 302 242 215 196 156 197 134
346 341 336 336 331 327 328 326 321 322 325 325 326 327 320 323 309 262 237 233 215 193 192 202 226 172 181 208 207 160 201 222 223 243 263 281 273 288 312 287 279 34 14 123 139
339 341 334 331 330 334 331 324 318 320 323 324 325 325 319 323 300 249 185 219 229 189 259 251 203 182 196 191 207 216 234 233 252 251 263 279 282 282 261 279 242 206 170 157 167
332 335 334 330 328 325 322 319 313 316 318 320 323 325 320 288 291 306 107 210 246 200 214 189 144 184 209 203 235 261 262 224 248 252 261 268 271 278 228 246 248 199 174 172 183
327 325 326 328 324 323 320 313 308 309 311 316 320 328 337 308 250 291 331 277 254 233 212 205 183 171 218 215 224 237 243 251 254 257 257 268 266 263 272 260 242 209 174 186 194
321 322 322 324 324 320 316 311 307 305 307 310 312 321 261 272 250 251 2 324 237 225 264 203 236 233 246 233 221 270 251 255 252 251 256 256 266 263 265 251 247 190 180 186 191
325 327 318 321 323 320 313 308 304 300 299 298 301 288 256 250 269 305 321 245 219 215 249 224 236 218 303 303 247 263 264 269 251 244 260 255 273 260 250 256 250 249 211 184 190
325 326 322 324 320 315 311 308 301 294 289 286 285 231 254 254 245 267 217 277 246 256 210 243 238 239 193 263 309 294 275 259 266 254 257 190 263 270 265 239 245 245 235 200 186
323 325 324 323 319 317 315 310 300 293 287 258 176 197 259 289 214 249 182 226 277 254 251 242 136 214 257 244 323 212 259 265 281 245 264 231 271 271 252 248 253 246 236 201 189
320 325 327 323 319 321 319 311 293 301 102 144 198 233 254 256 56 301 196 213 219 343 344 124 86 208 10 125 237 227 266 261 261 259 281 308 284 289 277 255 248 242 215 186 179
316 325 332 326 320 324 328 341 8 340 35 243 225 257 289 303 330 333 347 359 252 142 182 246 153 227 224 234 241 270 278 276 288 293 325 284 285 284 287 289 251 237 194 190 192
323 332 332 329 320 324 336 1 344 300 290 258 251 250 251 273 292 289 83 187 185 190 223 309 235 235 222 235 266 262 258 269 286 290 282 283 278 287 284 268 256 222 196 189 138
321 328 328 325 318 347 307 277 332 335 273 284 238 231 233 196 229 259 182 181 184 209 220 213 236 213 217 264 293 277 259 273 287 323 296 272 280 281 297 311 220 218 201 168 165
321 321 320 330 359 327 299 340 329 324 286 267 216 232 171 162 222 204 190 149 197 206 159 241 304 257 318 269 264 271 251 261 290 323 278 94 281 283 286 296 276 234 207 177 174
314 311 311 319 273 336 297 320 319 46 309 229 172 154 149 166 141 191 165 109 175 164 137 240 199 219 242 249 253 263 249 268 303 279 287 254 260 266 276 286 281 267 220 180 175
309 302 304 330 345 248 325 315 339 36 247 295 141 169 149 201 200 124 134 79 142 136 293 224 193 199 207 240 296 264 316 279 273 241 253 241 180 268 255 248 269 267 240 181 176
312 319 315 145 249 319 340 338 100 227 310 243 238 181 184 185 190 161 168 169 161 142 223 285 240 235 147 187 240 224 215 207 237 211 244 232 207 242 265 256 253 264 270 187 173
300 318 283 236 248 15 14 258 226 245 256 327 335 277 188 189 195 173 135 192 243 113 136 172 324 162 173 202 202 214 200 242 202 206 257 218 231 239 230 245 243 251 280 169 163
303 311 283 247 216 108 230 227 224 211 334 347 328 271 227 184 177 134 173 179 180 172 169 183 264 302 173 160 173 177 208 264 343 281 280 261 279 225 258 266 272 253 152 166 165
322 275 262 247 135 138 237 234 225 259 347 343 327 342 1 1 29 312 170 355 105 91 140 140 272 313 353 116 213 228 326 177 185 241 248 269 257 272 360 315 274 193 184 167 168
328 299 261 181 103 195 221 244 274 279 295 323 323 305 315 4 357 329 93 150 55 75 79 98 131 317 138 204 201 193 206 201 196 249 305 306 268 28 0 310 297 162 168 165 165
283 252 293 89 180 205 230 236 278 284 299 285 277 273 315 336 350 334 24 38 177 110 135 66 166 240 238 232 191 164 256 238 191 187 245 108 278 12 349 352 358 63 37 144 167
248 267 286 137 264 227 266 251 254 272 270 290 316 303 327 315 323 9 70 38 69 77 139 177 178 303 307 91 178 226 218 231 256 301 220 190 234 24 329 1 2 16 42 52 112
257 285 285 157 180 254 239 256 255 260 260 247 254 277 293 326 340 313 102 175 134 120 119 85 210 204 247 312 295 280 298 311 248 228 227 222 290 74 310 337 344 355 58 64 69
194 250 230 301 252 223 212 261 261 248 251 268 259 239 256 287 335 299 358 131 150 141 76 100 244 243 260 264 270 265 257 258 257 252 235 231 223 108 121 313 331 329 62 64 66
231 223 317 276 284 313 266 199 231 238 246 292 291 300 91 80 7 329 12 174 181 214 129 136 273 302 282 278 287 265 271 255 243 251 245 243 234 314 194 81 313 331 69 72 63
212 265 260 297 307 319 289 5 334 320 234 245 281 303 337 129 237 246 269 289 219 151 175 168 194 5 265 295 300 273 275 259 236 242 225 217 226 106 170 91 333 336 61 84 78